1597960834,2020-08-21 00:00,487.00,-31
1597960894,2020-08-21 00:01,485.00,-30
1597960954,2020-08-21 00:02,487.00,-27
1597961014,2020-08-21 00:03,489.00,-29
1597961074,2020-08-21 00:04,485.00,-29
1597961134,2020-08-21 00:05,486.00,-32
1597961194,2020-08-21 00:06,489.00,-31
1597961254,2020-08-21 00:07,490.00,-30
1597961314,2020-08-21 00:08,490.00,-31
1597961374,2020-08-21 00:09,487.00,-30
1597961434,2020-08-21 00:10,487.00,-28
1597961494,2020-08-21 00:11,485.00,-29
1597961554,2020-08-21 00:12,483.00,-30
1597961614,2020-08-21 00:13,481.00,-34
1597961674,2020-08-21 00:14,486.00,-31
1597961734,2020-08-21 00:15,486.00,-31
1597961794,2020-08-21 00:16,487.00,-29
1597961855,2020-08-21 00:17,488.00,-33
1597961915,2020-08-21 00:18,490.00,-31
1597961975,2020-08-21 00:19,497.00,-28
1597962035,2020-08-21 00:20,505.00,-31
1597962095,2020-08-21 00:21,503.00,-31
1597962155,2020-08-21 00:22,499.00,-28
1597962215,2020-08-21 00:23,497.00,-31
1597962275,2020-08-21 00:24,497.00,-32
1597962335,2020-08-21 00:25,500.00,-31
1597962395,2020-08-21 00:26,502.00,-31
1597962455,2020-08-21 00:27,504.00,-33
1597962515,2020-08-21 00:28,506.00,-32
1597962575,2020-08-21 00:29,510.00,-32
1597962635,2020-08-21 00:30,511.00,-31
1597962696,2020-08-21 00:31,509.00,-30
1597962756,2020-08-21 00:32,513.00,-31
1597962816,2020-08-21 00:33,514.00,-28
1597962876,2020-08-21 00:34,507.00,-33
1597962936,2020-08-21 00:35,506.00,-32
1597962996,2020-08-21 00:36,507.00,-28
1597963056,2020-08-21 00:37,498.00,-35
1597963116,2020-08-21 00:38,479.00,-31
1597963176,2020-08-21 00:39,479.00,-32
1597963236,2020-08-21 00:40,475.00,-31
1597963296,2020-08-21 00:41,469.00,-36
1597963356,2020-08-21 00:42,471.00,-34
1597963416,2020-08-21 00:43,470.00,-32
1597963476,2020-08-21 00:44,475.00,-30
1597963536,2020-08-21 00:45,475.00,-29
1597963596,2020-08-21 00:46,494.00,-30
1597963656,2020-08-21 00:47,503.00,-32
1597963716,2020-08-21 00:48,505.00,-32
1597963776,2020-08-21 00:49,507.00,-29
1597963836,2020-08-21 00:50,509.00,-27
1597963897,2020-08-21 00:51,512.00,-30
1597963957,2020-08-21 00:52,507.00,-32
1597964017,2020-08-21 00:53,511.00,-27
1597964077,2020-08-21 00:54,509.00,-32
1597964137,2020-08-21 00:55,508.00,-30
1597964197,2020-08-21 00:56,507.00,-31
1597964257,2020-08-21 00:57,505.00,-30
1597964317,2020-08-21 00:58,511.00,-34
1597964377,2020-08-21 00:59,517.00,-32
1597964437,2020-08-21 01:00,509.00,-30
1597964497,2020-08-21 01:01,504.00,-36
1597964557,2020-08-21 01:02,499.00,-36
1597964617,2020-08-21 01:03,498.00,-34
1597964677,2020-08-21 01:04,494.00,-28
1597964737,2020-08-21 01:05,490.00,-32
1597964797,2020-08-21 01:06,485.00,-33
1597964857,2020-08-21 01:07,478.00,-31
1597964917,2020-08-21 01:08,477.00,-29
1597964977,2020-08-21 01:09,477.00,-29
1597965037,2020-08-21 01:10,481.00,-29
1597965098,2020-08-21 01:11,485.00,-28
1597965158,2020-08-21 01:12,487.00,-29
1597965218,2020-08-21 01:13,492.00,-32
1597965278,2020-08-21 01:14,490.00,-31
1597965338,2020-08-21 01:15,490.00,-31
1597965398,2020-08-21 01:16,494.00,-28
1597965458,2020-08-21 01:17,497.00,-31
1597965518,2020-08-21 01:18,499.00,-30
1597965578,2020-08-21 01:19,502.00,-31
1597965638,2020-08-21 01:20,502.00,-32
1597965698,2020-08-21 01:21,503.00,-29
1597965758,2020-08-21 01:22,504.00,-33
1597965818,2020-08-21 01:23,504.00,-29
1597965878,2020-08-21 01:24,502.00,-32
1597965938,2020-08-21 01:25,499.00,-34
1597965998,2020-08-21 01:26,498.00,-28
1597966058,2020-08-21 01:27,496.00,-33
1597966119,2020-08-21 01:28,496.00,-33
1597966179,2020-08-21 01:29,492.00,-30
1597966239,2020-08-21 01:30,492.00,-26
1597966299,2020-08-21 01:31,493.00,-27
1597966359,2020-08-21 01:32,490.00,-31
1597966419,2020-08-21 01:33,488.00,-28
1597966479,2020-08-21 01:34,492.00,-30
1597966539,2020-08-21 01:35,491.00,-31
1597966599,2020-08-21 01:36,485.00,-31
1597966659,2020-08-21 01:37,479.00,-28
1597966719,2020-08-21 01:38,476.00,-30
1597966779,2020-08-21 01:39,476.00,-31
1597966840,2020-08-21 01:40,476.00,-29
1597966900,2020-08-21 01:41,476.00,-29
1597966960,2020-08-21 01:42,477.00,-32
1597967020,2020-08-21 01:43,475.00,-32
1597967080,2020-08-21 01:44,478.00,-29
1597967140,2020-08-21 01:45,481.00,-29
1597967200,2020-08-21 01:46,481.00,-28
1597967260,2020-08-21 01:47,481.00,-27
1597967320,2020-08-21 01:48,482.00,-28
1597967380,2020-08-21 01:49,480.00,-30
1597967440,2020-08-21 01:50,485.00,-29
1597967500,2020-08-21 01:51,487.00,-31
1597967560,2020-08-21 01:52,487.00,-30
1597967620,2020-08-21 01:53,489.00,-32
1597967680,2020-08-21 01:54,488.00,-31
1597967740,2020-08-21 01:55,490.00,-30
1597967800,2020-08-21 01:56,491.00,-29
1597967860,2020-08-21 01:57,484.00,-29
1597967920,2020-08-21 01:58,488.00,-34
1597967981,2020-08-21 01:59,485.00,-30
1597968041,2020-08-21 02:00,487.00,-29
1597968101,2020-08-21 02:01,490.00,-30
1597968161,2020-08-21 02:02,484.00,-29
1597968221,2020-08-21 02:03,483.00,-29
1597968281,2020-08-21 02:04,481.00,-32
1597968341,2020-08-21 02:05,484.00,-29
1597968401,2020-08-21 02:06,482.00,-28
1597968461,2020-08-21 02:07,474.00,-29
1597968521,2020-08-21 02:08,469.00,-33
1597968581,2020-08-21 02:09,472.00,-28
1597968641,2020-08-21 02:10,473.00,-28
1597968701,2020-08-21 02:11,474.00,-32
1597968761,2020-08-21 02:12,479.00,-30
1597968822,2020-08-21 02:13,478.00,-33
1597968882,2020-08-21 02:14,481.00,-28
1597968942,2020-08-21 02:15,483.00,-28
1597969002,2020-08-21 02:16,483.00,-30
1597969062,2020-08-21 02:17,486.00,-30
1597969122,2020-08-21 02:18,484.00,-30
1597969182,2020-08-21 02:19,488.00,-32
1597969242,2020-08-21 02:20,488.00,-32
1597969302,2020-08-21 02:21,486.00,-28
1597969362,2020-08-21 02:22,482.00,-33
1597969422,2020-08-21 02:23,478.00,-27
1597969482,2020-08-21 02:24,475.00,-31
1597969542,2020-08-21 02:25,473.00,-32
1597969602,2020-08-21 02:26,476.00,-27
1597969662,2020-08-21 02:27,475.00,-31
1597969722,2020-08-21 02:28,478.00,-31
1597969782,2020-08-21 02:29,474.00,-31
1597969842,2020-08-21 02:30,474.00,-26
1597969902,2020-08-21 02:31,477.00,-29
1597969963,2020-08-21 02:32,476.00,-26
1597970023,2020-08-21 02:33,474.00,-32
1597970083,2020-08-21 02:34,475.00,-28
1597970143,2020-08-21 02:35,470.00,-29
1597970203,2020-08-21 02:36,472.00,-32
1597970263,2020-08-21 02:37,472.00,-33
1597970323,2020-08-21 02:38,473.00,-30
1597970383,2020-08-21 02:39,477.00,-31
1597970443,2020-08-21 02:40,479.00,-30
1597970503,2020-08-21 02:41,481.00,-30
1597970563,2020-08-21 02:42,481.00,-30
1597970623,2020-08-21 02:43,481.00,-31
1597970683,2020-08-21 02:44,484.00,-34
1597970743,2020-08-21 02:45,473.00,-29
1597970803,2020-08-21 02:46,470.00,-31
1597970863,2020-08-21 02:47,473.00,-30
1597970923,2020-08-21 02:48,478.00,-31
1597970983,2020-08-21 02:49,480.00,-27
1597971044,2020-08-21 02:50,485.00,-27
1597971104,2020-08-21 02:51,482.00,-32
1597971164,2020-08-21 02:52,484.00,-30
1597971224,2020-08-21 02:53,483.00,-31
1597971284,2020-08-21 02:54,481.00,-30
1597971344,2020-08-21 02:55,482.00,-30
1597971404,2020-08-21 02:56,482.00,-31
1597971464,2020-08-21 02:57,477.00,-31
1597971524,2020-08-21 02:58,476.00,-29
1597971584,2020-08-21 02:59,477.00,-30
1597971644,2020-08-21 03:00,473.00,-32
1597971704,2020-08-21 03:01,474.00,-34
1597971764,2020-08-21 03:02,464.00,-31
1597971824,2020-08-21 03:03,465.00,-28
1597971884,2020-08-21 03:04,469.00,-31
1597971944,2020-08-21 03:05,465.00,-29
1597972004,2020-08-21 03:06,454.00,-26
1597972064,2020-08-21 03:07,452.00,-36
1597972124,2020-08-21 03:08,461.00,-37
1597972185,2020-08-21 03:09,447.00,-34
1597972245,2020-08-21 03:10,448.00,-33
1597972305,2020-08-21 03:11,441.00,-31
1597972365,2020-08-21 03:12,436.00,-36
1597972425,2020-08-21 03:13,440.00,-29
1597972485,2020-08-21 03:14,437.00,-32
1597972545,2020-08-21 03:15,434.00,-29
1597972605,2020-08-21 03:16,434.00,-28
1597972665,2020-08-21 03:17,434.00,-34
1597972725,2020-08-21 03:18,437.00,-30
1597972785,2020-08-21 03:19,435.00,-32
1597972845,2020-08-21 03:20,432.00,-32
1597972905,2020-08-21 03:21,432.00,-31
1597972965,2020-08-21 03:22,433.00,-31
1597973025,2020-08-21 03:23,436.00,-28
1597973085,2020-08-21 03:24,434.00,-30
1597973145,2020-08-21 03:25,438.00,-30
1597973205,2020-08-21 03:26,435.00,-32
1597973265,2020-08-21 03:27,436.00,-30
1597973325,2020-08-21 03:28,434.00,-29
1597973385,2020-08-21 03:29,436.00,-30
1597973445,2020-08-21 03:30,434.00,-30
1597973505,2020-08-21 03:31,437.00,-30
1597973565,2020-08-21 03:32,432.00,-31
1597973626,2020-08-21 03:33,436.00,-30
1597973686,2020-08-21 03:34,436.00,-29
1597973746,2020-08-21 03:35,434.00,-32
1597973806,2020-08-21 03:36,437.00,-34
1597973866,2020-08-21 03:37,431.00,-34
1597973926,2020-08-21 03:38,434.00,-32
1597973986,2020-08-21 03:39,441.00,-28
1597974046,2020-08-21 03:40,433.00,-30
1597974106,2020-08-21 03:41,433.00,-31
1597974166,2020-08-21 03:42,432.00,-30
1597974226,2020-08-21 03:43,433.00,-27
1597974286,2020-08-21 03:44,435.00,-31
1597974346,2020-08-21 03:45,434.00,-28
1597974406,2020-08-21 03:46,434.00,-29
1597974466,2020-08-21 03:47,440.00,-30
1597974526,2020-08-21 03:48,436.00,-30
1597974586,2020-08-21 03:49,434.00,-30
1597974646,2020-08-21 03:50,433.00,-32
1597974706,2020-08-21 03:51,437.00,-29
1597974766,2020-08-21 03:52,434.00,-31
1597974826,2020-08-21 03:53,434.00,-29
1597974886,2020-08-21 03:54,435.00,-32
1597974946,2020-08-21 03:55,441.00,-34
1597975006,2020-08-21 03:56,438.00,-30
1597975066,2020-08-21 03:57,431.00,-34
1597975127,2020-08-21 03:58,436.00,-32
1597975187,2020-08-21 03:59,432.00,-31
1597975247,2020-08-21 04:00,438.00,-29
1597975307,2020-08-21 04:01,435.00,-31
1597975367,2020-08-21 04:02,436.00,-30
1597975427,2020-08-21 04:03,439.00,-32
1597975487,2020-08-21 04:04,440.00,-29
1597975547,2020-08-21 04:05,441.00,-30
1597975607,2020-08-21 04:06,442.00,-30
1597975667,2020-08-21 04:07,439.00,-32
1597975727,2020-08-21 04:08,436.00,-30
1597975787,2020-08-21 04:09,437.00,-29
1597975847,2020-08-21 04:10,438.00,-34
1597975907,2020-08-21 04:11,437.00,-28
1597975967,2020-08-21 04:12,438.00,-30
1597976027,2020-08-21 04:13,440.00,-33
1597976087,2020-08-21 04:14,440.00,-31
1597976147,2020-08-21 04:15,440.00,-32
1597976207,2020-08-21 04:16,439.00,-30
1597976267,2020-08-21 04:17,438.00,-31
1597976327,2020-08-21 04:18,438.00,-32
1597976387,2020-08-21 04:19,440.00,-31
1597976447,2020-08-21 04:20,441.00,-29
1597976508,2020-08-21 04:21,441.00,-29
1597976568,2020-08-21 04:22,442.00,-31
1597976628,2020-08-21 04:23,439.00,-31
1597976688,2020-08-21 04:24,442.00,-31
1597976748,2020-08-21 04:25,441.00,-29
1597976808,2020-08-21 04:26,439.00,-31
1597976868,2020-08-21 04:27,443.00,-32
1597976928,2020-08-21 04:28,442.00,-33
1597976988,2020-08-21 04:29,440.00,-32
1597977048,2020-08-21 04:30,442.00,-30
1597977108,2020-08-21 04:31,438.00,-30
1597977168,2020-08-21 04:32,439.00,-31
1597977229,2020-08-21 04:33,440.00,-31
1597977289,2020-08-21 04:34,441.00,-29
1597977349,2020-08-21 04:35,440.00,-30
1597977409,2020-08-21 04:36,441.00,-27
1597977469,2020-08-21 04:37,445.00,-34
1597977529,2020-08-21 04:38,443.00,-32
1597977589,2020-08-21 04:39,443.00,-29
1597977649,2020-08-21 04:40,441.00,-30
1597977709,2020-08-21 04:41,440.00,-32
1597977769,2020-08-21 04:42,440.00,-32
1597977829,2020-08-21 04:43,441.00,-29
1597977889,2020-08-21 04:44,441.00,-33
1597977949,2020-08-21 04:45,442.00,-30
1597978009,2020-08-21 04:46,439.00,-30
1597978069,2020-08-21 04:47,442.00,-27
1597978130,2020-08-21 04:48,443.00,-34
1597978190,2020-08-21 04:49,442.00,-30
1597978250,2020-08-21 04:50,442.00,-34
1597978310,2020-08-21 04:51,442.00,-31
1597978370,2020-08-21 04:52,446.00,-30
1597978430,2020-08-21 04:53,441.00,-26
1597978490,2020-08-21 04:54,440.00,-31
1597978550,2020-08-21 04:55,440.00,-29
1597978610,2020-08-21 04:56,440.00,-30
1597978670,2020-08-21 04:57,440.00,-30
1597978730,2020-08-21 04:58,440.00,-30
1597978790,2020-08-21 04:59,439.00,-31
1597978850,2020-08-21 05:00,439.00,-30
1597978910,2020-08-21 05:01,440.00,-28
1597978970,2020-08-21 05:02,440.00,-30
1597979030,2020-08-21 05:03,442.00,-31
1597979090,2020-08-21 05:04,443.00,-32
1597979150,2020-08-21 05:05,445.00,-27
1597979210,2020-08-21 05:06,453.00,-32
1597979270,2020-08-21 05:07,459.00,-28
1597979330,2020-08-21 05:08,454.00,-30
1597979391,2020-08-21 05:09,444.00,-34
1597979451,2020-08-21 05:10,441.00,-32
1597979511,2020-08-21 05:11,442.00,-27
1597979571,2020-08-21 05:12,439.00,-28
1597979631,2020-08-21 05:13,441.00,-34
1597979691,2020-08-21 05:14,440.00,-29
1597979751,2020-08-21 05:15,441.00,-28
1597979811,2020-08-21 05:16,444.00,-33
1597979871,2020-08-21 05:17,445.00,-32
1597979931,2020-08-21 05:18,448.00,-29
1597979991,2020-08-21 05:19,445.00,-32
1597980051,2020-08-21 05:20,446.00,-33
1597980111,2020-08-21 05:21,448.00,-29
1597980171,2020-08-21 05:22,452.00,-31
1597980231,2020-08-21 05:23,456.00,-35
1597980291,2020-08-21 05:24,455.00,-31
1597980351,2020-08-21 05:25,458.00,-29
1597980411,2020-08-21 05:26,457.00,-27
1597980472,2020-08-21 05:27,457.00,-30
1597980532,2020-08-21 05:28,454.00,-29
1597980592,2020-08-21 05:29,454.00,-28
1597980652,2020-08-21 05:30,455.00,-32
1597980712,2020-08-21 05:31,453.00,-28
1597980772,2020-08-21 05:32,451.00,-35
1597980832,2020-08-21 05:33,451.00,-31
1597980892,2020-08-21 05:34,452.00,-32
1597980952,2020-08-21 05:35,455.00,-31
1597981012,2020-08-21 05:36,456.00,-31
1597981072,2020-08-21 05:37,460.00,-32
1597981132,2020-08-21 05:38,462.00,-30
1597981192,2020-08-21 05:39,466.00,-29
1597981252,2020-08-21 05:40,468.00,-31
1597981312,2020-08-21 05:41,474.00,-28
1597981372,2020-08-21 05:42,484.00,-29
1597981432,2020-08-21 05:43,491.00,-28
1597981492,2020-08-21 05:44,491.00,-32
1597981552,2020-08-21 05:45,490.00,-30
1597981612,2020-08-21 05:46,488.00,-31
1597981673,2020-08-21 05:47,488.00,-32
1597981733,2020-08-21 05:48,486.00,-29
1597981793,2020-08-21 05:49,491.00,-28
1597981853,2020-08-21 05:50,494.00,-34
1597981913,2020-08-21 05:51,498.00,-29
1597981973,2020-08-21 05:52,500.00,-32
1597982033,2020-08-21 05:53,502.00,-29
1597982093,2020-08-21 05:54,499.00,-30
1597982153,2020-08-21 05:55,500.00,-31
1597982213,2020-08-21 05:56,494.00,-31
1597982273,2020-08-21 05:57,495.00,-31
1597982333,2020-08-21 05:58,493.00,-29
1597982393,2020-08-21 05:59,491.00,-30
1597982453,2020-08-21 06:00,484.00,-30
1597982513,2020-08-21 06:01,481.00,-29
1597982573,2020-08-21 06:02,480.00,-27
1597982633,2020-08-21 06:03,479.00,-30
1597982693,2020-08-21 06:04,481.00,-31
1597982753,2020-08-21 06:05,480.00,-27
1597982814,2020-08-21 06:06,476.00,-29
1597982874,2020-08-21 06:07,471.00,-32
1597982934,2020-08-21 06:08,467.00,-29
1597982994,2020-08-21 06:09,464.00,-28
1597983054,2020-08-21 06:10,464.00,-27
1597983114,2020-08-21 06:11,465.00,-33
1597983174,2020-08-21 06:12,467.00,-31
1597983234,2020-08-21 06:13,463.00,-27
1597983294,2020-08-21 06:14,463.00,-37
1597983354,2020-08-21 06:15,463.00,-30
1597983414,2020-08-21 06:16,463.00,-27
1597983474,2020-08-21 06:17,465.00,-28
1597983534,2020-08-21 06:18,462.00,-30
1597983594,2020-08-21 06:19,452.00,-28
1597983654,2020-08-21 06:20,449.00,-30
1597983714,2020-08-21 06:21,445.00,-32
1597983774,2020-08-21 06:22,438.00,-34
1597983835,2020-08-21 06:23,439.00,-35
1597983895,2020-08-21 06:24,433.00,-32
1597983955,2020-08-21 06:25,440.00,-30
1597984015,2020-08-21 06:26,436.00,-28
1597984075,2020-08-21 06:27,434.00,-32
1597984135,2020-08-21 06:28,438.00,-29
1597984195,2020-08-21 06:29,436.00,-33
1597984255,2020-08-21 06:30,437.00,-31
1597984315,2020-08-21 06:31,435.00,-34
1597984375,2020-08-21 06:32,439.00,-31
1597984435,2020-08-21 06:33,434.00,-31
1597984495,2020-08-21 06:34,434.00,-28
1597984555,2020-08-21 06:35,432.00,-31
1597984615,2020-08-21 06:36,430.00,-31
1597984675,2020-08-21 06:37,431.00,-32
1597984735,2020-08-21 06:38,432.00,-33
1597984796,2020-08-21 06:39,432.00,-31
1597984856,2020-08-21 06:40,429.00,-35
1597984916,2020-08-21 06:41,433.00,-31
1597984976,2020-08-21 06:42,435.00,-29
1597985036,2020-08-21 06:43,427.00,-29
1597985096,2020-08-21 06:44,428.00,-31
1597985156,2020-08-21 06:45,428.00,-32
1597985216,2020-08-21 06:46,425.00,-33
1597985276,2020-08-21 06:47,427.00,-28
1597985336,2020-08-21 06:48,431.00,-31
1597985396,2020-08-21 06:49,443.00,-28
1597985456,2020-08-21 06:50,462.00,-32
1597985516,2020-08-21 06:51,449.00,-30
1597985576,2020-08-21 06:52,446.00,-30
1597985637,2020-08-21 06:53,445.00,-35
1597985697,2020-08-21 06:54,439.00,-27
1597985757,2020-08-21 06:55,434.00,-31
1597985817,2020-08-21 06:56,427.00,-31
1597985877,2020-08-21 06:57,425.00,-30
1597985937,2020-08-21 06:58,432.00,-29
1597985997,2020-08-21 06:59,430.00,-31
1597986057,2020-08-21 07:00,424.00,-33
1597986117,2020-08-21 07:01,426.00,-31
1597986177,2020-08-21 07:02,427.00,-31
1597986237,2020-08-21 07:03,425.00,-33
1597986297,2020-08-21 07:04,425.00,-34
1597986357,2020-08-21 07:05,430.00,-34
1597986417,2020-08-21 07:06,431.00,-34
1597986477,2020-08-21 07:07,423.00,-31
1597986537,2020-08-21 07:08,427.00,-28
1597986597,2020-08-21 07:09,428.00,-32
1597986657,2020-08-21 07:10,429.00,-29
1597986718,2020-08-21 07:11,427.00,-32
1597986778,2020-08-21 07:12,442.00,-32
1597986838,2020-08-21 07:13,452.00,-34
1597986898,2020-08-21 07:14,449.00,-36
1597986958,2020-08-21 07:15,447.00,-33
1597987018,2020-08-21 07:16,443.00,-31
1597987078,2020-08-21 07:17,441.00,-30
1597987138,2020-08-21 07:18,445.00,-31
1597987198,2020-08-21 07:19,444.00,-34
1597987258,2020-08-21 07:20,438.00,-37
1597987318,2020-08-21 07:21,435.00,-37
1597987378,2020-08-21 07:22,438.00,-35
1597987438,2020-08-21 07:23,435.00,-30
1597987498,2020-08-21 07:24,436.00,-35
1597987559,2020-08-21 07:25,428.00,-36
1597987619,2020-08-21 07:26,435.00,-31
1597987679,2020-08-21 07:27,438.00,-32
1597987739,2020-08-21 07:28,438.00,-26
1597987799,2020-08-21 07:29,437.00,-35
1597987859,2020-08-21 07:30,435.00,-33
1597987919,2020-08-21 07:31,426.00,-27
1597987979,2020-08-21 07:32,427.00,-34
1597988039,2020-08-21 07:33,435.00,-28
1597988099,2020-08-21 07:34,436.00,-32
1597988159,2020-08-21 07:35,439.00,-31
1597988219,2020-08-21 07:36,443.00,-33
1597988279,2020-08-21 07:37,448.00,-34
1597988339,2020-08-21 07:38,445.00,-31
1597988399,2020-08-21 07:39,430.00,-33
1597988459,2020-08-21 07:40,426.00,-31
1597988520,2020-08-21 07:42,423.00,-29
1597988580,2020-08-21 07:43,425.00,-28
1597988640,2020-08-21 07:44,422.00,-34
1597988700,2020-08-21 07:45,419.00,-29
1597988760,2020-08-21 07:46,419.00,-35
1597988820,2020-08-21 07:47,415.00,-28
1597988880,2020-08-21 07:48,418.00,-31
1597988940,2020-08-21 07:49,423.00,-29
1597989000,2020-08-21 07:50,425.00,-30
1597989060,2020-08-21 07:51,427.00,-30
1597989120,2020-08-21 07:52,430.00,-31
1597989180,2020-08-21 07:53,437.00,-31
1597989240,2020-08-21 07:54,440.00,-30
1597989300,2020-08-21 07:55,440.00,-35
1597989360,2020-08-21 07:56,440.00,-33
1597989420,2020-08-21 07:57,434.00,-31
1597989481,2020-08-21 07:58,426.00,-30
1597989541,2020-08-21 07:59,418.00,-34
1597989601,2020-08-21 08:00,418.00,-31
1597989661,2020-08-21 08:01,417.00,-32
1597989721,2020-08-21 08:02,417.00,-31
1597989781,2020-08-21 08:03,418.00,-29
1597989841,2020-08-21 08:04,420.00,-34
1597989901,2020-08-21 08:05,417.00,-30
1597989961,2020-08-21 08:06,415.00,-31
1597990021,2020-08-21 08:07,412.00,-28
1597990081,2020-08-21 08:08,411.00,-29
1597990142,2020-08-21 08:09,410.00,-31
1597990202,2020-08-21 08:10,410.00,-28
1597990262,2020-08-21 08:11,410.00,-30
1597990322,2020-08-21 08:12,411.00,-29
1597990382,2020-08-21 08:13,413.00,-29
1597990442,2020-08-21 08:14,409.00,-31
1597990502,2020-08-21 08:15,411.00,-29
1597990562,2020-08-21 08:16,413.00,-32
1597990622,2020-08-21 08:17,412.00,-30
1597990682,2020-08-21 08:18,410.00,-29
1597990742,2020-08-21 08:19,409.00,-32
1597990803,2020-08-21 08:20,413.00,-29
1597990863,2020-08-21 08:21,409.00,-28
1597990923,2020-08-21 08:22,414.00,-30
1597990983,2020-08-21 08:23,419.00,-28
1597991043,2020-08-21 08:24,418.00,-31
1597991103,2020-08-21 08:25,422.00,-34
1597991163,2020-08-21 08:26,420.00,-29
1597991223,2020-08-21 08:27,419.00,-33
1597991283,2020-08-21 08:28,419.00,-27
1597991343,2020-08-21 08:29,416.00,-28
1597991403,2020-08-21 08:30,417.00,-34
1597991463,2020-08-21 08:31,418.00,-33
1597991523,2020-08-21 08:32,418.00,-33
1597991583,2020-08-21 08:33,416.00,-32
1597991644,2020-08-21 08:34,416.00,-34
1597991704,2020-08-21 08:35,417.00,-29
1597991764,2020-08-21 08:36,420.00,-33
1597991824,2020-08-21 08:37,417.00,-28
1597991884,2020-08-21 08:38,418.00,-33
1597991944,2020-08-21 08:39,417.00,-31
1597992004,2020-08-21 08:40,416.00,-28
1597992064,2020-08-21 08:41,417.00,-29
1597992124,2020-08-21 08:42,416.00,-31
1597992184,2020-08-21 08:43,415.00,-32
1597992244,2020-08-21 08:44,417.00,-29
1597992304,2020-08-21 08:45,416.00,-30
1597992364,2020-08-21 08:46,416.00,-28
1597992425,2020-08-21 08:47,415.00,-33
1597992485,2020-08-21 08:48,415.00,-29
1597992545,2020-08-21 08:49,415.00,-35
1597992605,2020-08-21 08:50,414.00,-29
1597992665,2020-08-21 08:51,413.00,-30
1597992725,2020-08-21 08:52,413.00,-31
1597992785,2020-08-21 08:53,414.00,-30
1597992845,2020-08-21 08:54,413.00,-29
1597992905,2020-08-21 08:55,413.00,-29
1597992965,2020-08-21 08:56,411.00,-34
1597993025,2020-08-21 08:57,413.00,-29
1597993085,2020-08-21 08:58,414.00,-28
1597993145,2020-08-21 08:59,414.00,-30
1597993205,2020-08-21 09:00,412.00,-32
1597993265,2020-08-21 09:01,412.00,-29
1597993325,2020-08-21 09:02,412.00,-28
1597993386,2020-08-21 09:03,413.00,-30
1597993446,2020-08-21 09:04,411.00,-27
1597993506,2020-08-21 09:05,410.00,-29
1597993566,2020-08-21 09:06,416.00,-31
1597993626,2020-08-21 09:07,417.00,-30
1597993686,2020-08-21 09:08,416.00,-33
1597993746,2020-08-21 09:09,416.00,-33
1597993807,2020-08-21 09:10,418.00,-30
1597993867,2020-08-21 09:11,420.00,-31
1597993927,2020-08-21 09:12,416.00,-29
1597993987,2020-08-21 09:13,418.00,-29
1597994047,2020-08-21 09:14,420.00,-27
1597994107,2020-08-21 09:15,416.00,-28
1597994167,2020-08-21 09:16,417.00,-32
1597994228,2020-08-21 09:17,416.00,-31
1597994288,2020-08-21 09:18,419.00,-33
1597994348,2020-08-21 09:19,415.00,-31
1597994408,2020-08-21 09:20,415.00,-34
1597994468,2020-08-21 09:21,418.00,-29
1597994528,2020-08-21 09:22,418.00,-28
1597994588,2020-08-21 09:23,418.00,-29
1597994649,2020-08-21 09:24,416.00,-28
1597994709,2020-08-21 09:25,415.00,-33
1597994769,2020-08-21 09:26,416.00,-28
1597994829,2020-08-21 09:27,417.00,-28
1597994890,2020-08-21 09:28,418.00,-30
1597994950,2020-08-21 09:29,418.00,-27
1597995010,2020-08-21 09:30,417.00,-32
1597995070,2020-08-21 09:31,420.00,-28
1597995130,2020-08-21 09:32,421.00,-29
1597995190,2020-08-21 09:33,419.00,-31
1597995250,2020-08-21 09:34,418.00,-27
1597995310,2020-08-21 09:35,418.00,-27
1597995370,2020-08-21 09:36,420.00,-30
1597995431,2020-08-21 09:37,418.00,-33
1597995491,2020-08-21 09:38,419.00,-32
1597995551,2020-08-21 09:39,418.00,-32
1597995611,2020-08-21 09:40,420.00,-32
1597995671,2020-08-21 09:41,419.00,-38
1597995731,2020-08-21 09:42,424.00,-30
1597995791,2020-08-21 09:43,423.00,-28
1597995851,2020-08-21 09:44,420.00,-29
1597995912,2020-08-21 09:45,417.00,-28
1597995972,2020-08-21 09:46,419.00,-31
1597996032,2020-08-21 09:47,414.00,-30
1597996092,2020-08-21 09:48,416.00,-29
1597996152,2020-08-21 09:49,417.00,-30
1597996212,2020-08-21 09:50,418.00,-32
1597996272,2020-08-21 09:51,418.00,-27
1597996332,2020-08-21 09:52,418.00,-29
1597996393,2020-08-21 09:53,418.00,-30
1597996453,2020-08-21 09:54,417.00,-28
1597996513,2020-08-21 09:55,415.00,-31
1597996573,2020-08-21 09:56,416.00,-28
1597996633,2020-08-21 09:57,417.00,-28
1597996693,2020-08-21 09:58,418.00,-31
1597996753,2020-08-21 09:59,418.00,-28
1597996813,2020-08-21 10:00,418.00,-32
1597996873,2020-08-21 10:01,416.00,-31
1597996933,2020-08-21 10:02,417.00,-27
1597996993,2020-08-21 10:03,415.00,-29
1597997053,2020-08-21 10:04,421.00,-31
1597997114,2020-08-21 10:05,423.00,-28
1597997174,2020-08-21 10:06,422.00,-30
1597997234,2020-08-21 10:07,419.00,-28
1597997294,2020-08-21 10:08,420.00,-28
1597997354,2020-08-21 10:09,420.00,-31
1597997414,2020-08-21 10:10,420.00,-31
1597997474,2020-08-21 10:11,416.00,-28
1597997534,2020-08-21 10:12,416.00,-29
1597997594,2020-08-21 10:13,417.00,-28
1597997654,2020-08-21 10:14,418.00,-31
1597997714,2020-08-21 10:15,419.00,-31